NVS-02 (IRNSS-1K) (62850 NORAD) Tracking and Keplerian Element Data

This shows tracking and keplerian element data for the satellite.

Feedback or suggestion? Click here.




ElementValue
Catalog62850
NameNVS-02 (IRNSS-1K)
Epoch Orbit707
Epoch Day353.9004489
Epoch Year2025
RAAN325.068
Inclination20.9657
Eccentricity0.7347354
Argument of Perigee30.8754
Mean Anonmoly356.6666
Mean Motion2.17600075
Decay Rate1.57E-06
L11 62850U 25020A 25353.90044890 .00000157 00000+0 11703-3 0 9999
L22 62850 20.9657 325.0680 7347354 30.8754 356.6666 2.17600075 7076



Live tracking and technical data element details for NVS-02 (IRNSS-1K) (NORAD 62850). NVS-02 (IRNSS-1K) can be tracked NOW for your location showing map with azimuth and elevation plus other details from your city location.







IsCatalogInMostPopularTable: catalog: 62850, numindb: 313
Update: records affected: 1



GetName: 62850 NVS-02 (IRNSS-1K)

Hit Count: updated at: Sat, 18 Apr 2026 16:53:36 GMT